{"data":{"norad_id":53416,"intl_designator":"2022-097AE","name":"STARLINK-4480","alt_names":[],"object_type":"PAYLOAD","status":"ACTIVE","operator":null,"country":"US","launch_date":"2022-08-10","launch_site_code":"AFETR","launch_vehicle":null,"mission":null,"orbit_class":"UNKNOWN","rcs_meters":null,"size_class":null,"mass_kg":null,"dimensions":null,"purposes":["comms"],"wikipedia_slug":null,"has_3d_model":false,"image_url":null,"decayed_at":null,"tle_current":{"epoch":"2026-05-25T02:49:15.632256Z","epoch_age_seconds":71814,"freshness":"FRESH","line1":"1 53416U 22097AE  26145.11754204 -.00000773  00000+0 -30491-4 0  9990","line2":"2 53416  53.2156 130.9726 0001218  71.7823 288.3301 15.08840358210168","mean_motion":15.08840358,"eccentricity":0.0001218,"inclination_deg":53.2156,"raan_deg":130.9726,"arg_perigee_deg":71.7823,"mean_anomaly_deg":288.3301,"bstar":-3.0491e-5,"rev_number":21016,"period_min":95.437532033459,"perigee_km":538.89969700345,"apogee_km":540.58489239964,"semimajor_km":6917.8792947015,"source":"CELESTRAK","updated_at":"2026-05-25T13:38:17.402066Z"}}}